When you browse on this site, cookies collect data to enhance your experience and personalize the content and advertising you see.
Visit our Privacy Policy to learn more. By continuing to use the site, you agree to this use of cookies and data.
  • In Österreich
  • Länderverzeichnis
  • Für 7 Tage
  • Wassertemperatur
  • Wetterkarte
  • News
  • Widgets
  • user-avatar
    Anmelden

    Stündliche Wetter Wellington

    Heute, 2 Juni, Dienstag

    Zeit Temperatur Niederschläge Wind Luftdruck Luftfeuchtigkeit
    00:00 +16°C° 0 mm 2 m/S 603 mmHg 83%
    01:00 +16°C° 0 mm 2 m/S 602 mmHg 83%
    02:00 +15°C° 0 mm 2 m/S 602 mmHg 83%
    03:00 +15°C° 0 mm 2 m/S 602 mmHg 83%
    04:00 +15°C° 0 mm 1 m/S 602 mmHg 84%
    05:00 +15°C° 0 mm 1 m/S 602 mmHg 85%
    06:00 +16°C° 0.3 mm 1 m/S 603 mmHg 83%
    07:00 +18°C° 0.3 mm 1 m/S 604 mmHg 81%
    08:00 +19°C° 0.3 mm 1 m/S 604 mmHg 80%
    09:00 +19°C° 0.9 mm 2 m/S 605 mmHg 77%
    10:00 +20°C° 0.9 mm 2 m/S 605 mmHg 75%
    11:00 +21°C° 0.9 mm 2 m/S 606 mmHg 72%
    12:00 +21°C° 0.7 mm 2 m/S 605 mmHg 71%
    13:00 +21°C° 0.7 mm 2 m/S 605 mmHg 69%
    14:00 +21°C° 0.7 mm 2 m/S 604 mmHg 68%
    15:00 +20°C° 0.7 mm 2 m/S 604 mmHg 71%
    16:00 +20°C° 0.7 mm 2 m/S 604 mmHg 73%
    17:00 +19°C° 0.7 mm 2 m/S 603 mmHg 76%
    18:00 +18°C° 0.4 mm 2 m/S 603 mmHg 78%
    19:00 +17°C° 0.4 mm 2 m/S 603 mmHg 80%
    20:00 +17°C° 0.4 mm 2 m/S 603 mmHg 81%
    21:00 +16°C° 0 mm 2 m/S 603 mmHg 82%
    22:00 +16°C° 0 mm 2 m/S 603 mmHg 82%
    23:00 +15°C° 0 mm 1 m/S 603 mmHg 83%

    Morgen, 3 Juni, Mittwoch

    Zeit Temperatur Niederschläge Wind Luftdruck Luftfeuchtigkeit
    00:00 +15°C° 0 mm 1 m/S 603 mmHg 84%
    01:00 +15°C° 0 mm 2 m/S 602 mmHg 85%
    02:00 +15°C° 0 mm 2 m/S 602 mmHg 86%
    03:00 +15°C° 0 mm 1 m/S 602 mmHg 86%
    04:00 +15°C° 0 mm 1 m/S 602 mmHg 87%
    05:00 +15°C° 0 mm 1 m/S 602 mmHg 87%
    06:00 +16°C° 0 mm 1 m/S 603 mmHg 83%
    07:00 +18°C° 0 mm 1 m/S 604 mmHg 79%
    08:00 +19°C° 0 mm 1 m/S 604 mmHg 76%
    09:00 +19°C° 0 mm 2 m/S 605 mmHg 70%
    10:00 +21°C° 0 mm 2 m/S 605 mmHg 65%
    11:00 +23°C° 0 mm 2 m/S 606 mmHg 59%
    12:00 +23°C° 0.6 mm 2 m/S 605 mmHg 60%
    13:00 +23°C° 0.6 mm 2 m/S 605 mmHg 61%
    14:00 +24°C° 0.6 mm 2 m/S 604 mmHg 62%
    15:00 +23°C° 1.1 mm 2 m/S 604 mmHg 66%
    16:00 +21°C° 1.1 mm 2 m/S 603 mmHg 70%
    17:00 +20°C° 1.1 mm 2 m/S 603 mmHg 75%
    18:00 +19°C° 0.6 mm 2 m/S 603 mmHg 78%
    19:00 +18°C° 0.6 mm 2 m/S 603 mmHg 80%
    20:00 +17°C° 0.6 mm 2 m/S 603 mmHg 83%
    21:00 +16°C° 0 mm 2 m/S 603 mmHg 84%
    22:00 +16°C° 0 mm 2 m/S 603 mmHg 84%
    23:00 +16°C° 0 mm 2 m/S 603 mmHg 85%

    übermorgen, 4 Juni, Donnerstag

    Zeit Temperatur Niederschläge Wind Luftdruck Luftfeuchtigkeit
    00:00 +16°C° 0 mm 2 m/S 602 mmHg 85%
    01:00 +15°C° 0 mm 2 m/S 602 mmHg 85%
    02:00 +15°C° 0 mm 2 m/S 602 mmHg 84%
    03:00 +15°C° 0 mm 1 m/S 602 mmHg 85%
    04:00 +15°C° 0 mm 1 m/S 602 mmHg 86%
    05:00 +15°C° 0 mm 1 m/S 602 mmHg 87%
    06:00 +16°C° 0 mm 1 m/S 603 mmHg 83%
    07:00 +18°C° 0 mm 1 m/S 604 mmHg 79%
    08:00 +19°C° 0 mm 1 m/S 604 mmHg 75%
    09:00 +20°C° 0 mm 1 m/S 605 mmHg 71%
    10:00 +21°C° 0 mm 1 m/S 605 mmHg 67%
    11:00 +23°C° 0 mm 1 m/S 606 mmHg 62%
    12:00 +23°C° 0.5 mm 1 m/S 605 mmHg 63%
    13:00 +23°C° 0.5 mm 1 m/S 605 mmHg 64%
    14:00 +23°C° 0.5 mm 1 m/S 604 mmHg 65%
    15:00 +22°C° 0.9 mm 1 m/S 604 mmHg 68%
    16:00 +21°C° 0.9 mm 1 m/S 604 mmHg 71%
    17:00 +21°C° 0.9 mm 1 m/S 603 mmHg 74%
    18:00 +19°C° 0.3 mm 1 m/S 603 mmHg 78%
    19:00 +18°C° 0.3 mm 1 m/S 603 mmHg 81%
    20:00 +16°C° 0.3 mm 2 m/S 603 mmHg 84%
    21:00 +16°C° 0 mm 1 m/S 603 mmHg 83%
    22:00 +16°C° 0 mm 1 m/S 603 mmHg 83%
    23:00 +16°C° 0 mm 1 m/S 603 mmHg 82%

    5 Juni, Freitag

    Zeit Temperatur Niederschläge Wind Luftdruck Luftfeuchtigkeit
    00:00 +15°C° 0 mm 1 m/S 603 mmHg 82%
    01:00 +15°C° 0 mm 1 m/S 602 mmHg 82%
    02:00 +15°C° 0 mm 1 m/S 602 mmHg 82%
    03:00 +15°C° 0 mm 1 m/S 602 mmHg 82%
    04:00 +15°C° 0 mm 1 m/S 602 mmHg 82%
    05:00 +14°C° 0 mm 1 m/S 602 mmHg 82%
    06:00 +16°C° 0 mm 1 m/S 603 mmHg 78%
    07:00 +18°C° 0 mm 1 m/S 604 mmHg 73%
    08:00 +20°C° 0 mm 1 m/S 605 mmHg 68%
    09:00 +21°C° 0.4 mm 1 m/S 605 mmHg 66%
    10:00 +22°C° 0.4 mm 1 m/S 605 mmHg 64%
    11:00 +23°C° 0.4 mm 1 m/S 606 mmHg 63%
    12:00 +23°C° 2.1 mm 1 m/S 605 mmHg 65%
    13:00 +22°C° 2.1 mm 1 m/S 604 mmHg 67%
    14:00 +22°C° 2.1 mm 1 m/S 604 mmHg 69%
    15:00 +21°C° 2 mm 1 m/S 603 mmHg 72%
    16:00 +21°C° 2 mm 1 m/S 603 mmHg 75%
    17:00 +20°C° 2 mm 1 m/S 603 mmHg 78%
    18:00 +19°C° 1 mm 1 m/S 603 mmHg 80%
    19:00 +18°C° 1 mm 1 m/S 603 mmHg 82%
    20:00 +18°C° 1 mm 1 m/S 603 mmHg 84%
    21:00 +16°C° 0.4 mm 1 m/S 603 mmHg 85%
    22:00 +16°C° 0.4 mm 1 m/S 603 mmHg 85%
    23:00 +16°C° 0.4 mm 1 m/S 603 mmHg 86%

    6 Juni, Samstag

    Zeit Temperatur Niederschläge Wind Luftdruck Luftfeuchtigkeit
    00:00 +15°C° 0.1 mm 1 m/S 603 mmHg 86%
    01:00 +15°C° 0.1 mm 1 m/S 602 mmHg 86%
    02:00 +15°C° 0.1 mm 1 m/S 602 mmHg 86%
    03:00 +15°C° 0 mm 1 m/S 602 mmHg 86%
    04:00 +15°C° 0 mm 1 m/S 601 mmHg 86%
    05:00 +14°C° 0 mm 1 m/S 601 mmHg 86%
    06:00 +16°C° 0 mm 1 m/S 602 mmHg 81%
    07:00 +18°C° 0 mm 1 m/S 604 mmHg 76%
    08:00 +18°C° 0 mm 0 m/S 605 mmHg 71%
    09:00 +21°C° 0.1 mm 1 m/S 605 mmHg 66%
    10:00 +22°C° 0.1 mm 1 m/S 605 mmHg 62%
    11:00 +23°C° 0.1 mm 1 m/S 606 mmHg 57%
    12:00 +23°C° 0.8 mm 1 m/S 605 mmHg 60%
    13:00 +22°C° 0.8 mm 1 m/S 604 mmHg 62%
    14:00 +21°C° 0.8 mm 2 m/S 603 mmHg 65%
    15:00 +20°C° 1.3 mm 2 m/S 603 mmHg 70%
    16:00 +19°C° 1.3 mm 2 m/S 602 mmHg 75%
    17:00 +18°C° 1.3 mm 2 m/S 602 mmHg 80%
    18:00 +17°C° 0.3 mm 2 m/S 602 mmHg 81%
    19:00 +17°C° 0.3 mm 2 m/S 603 mmHg 82%
    20:00 +16°C° 0.3 mm 2 m/S 603 mmHg 84%
    21:00 +16°C° 0 mm 2 m/S 603 mmHg 83%
    22:00 +16°C° 0 mm 2 m/S 603 mmHg 81%
    23:00 +15°C° 0 mm 2 m/S 603 mmHg 80%

    7 Juni, Sonntag

    Zeit Temperatur Niederschläge Wind Luftdruck Luftfeuchtigkeit
    00:00 +15°C° 0 mm 2 m/S 602 mmHg 79%
    01:00 +15°C° 0 mm 2 m/S 602 mmHg 77%
    02:00 +15°C° 0 mm 2 m/S 601 mmHg 76%
    03:00 +14°C° 0 mm 1 m/S 601 mmHg 76%
    04:00 +14°C° 0 mm 1 m/S 601 mmHg 75%
    05:00 +14°C° 0 mm 1 m/S 601 mmHg 75%
    06:00 +16°C° 0 mm 1 m/S 602 mmHg 71%
    07:00 +18°C° 0 mm 1 m/S 603 mmHg 67%
    08:00 +20°C° 0 mm 1 m/S 604 mmHg 62%
    09:00 +21°C° 0 mm 1 m/S 605 mmHg 59%
    10:00 +22°C° 0 mm 1 m/S 605 mmHg 56%
    11:00 +23°C° 0 mm 1 m/S 605 mmHg 53%
    12:00 +23°C° 0.6 mm 1 m/S 605 mmHg 57%
    13:00 +21°C° 0.6 mm 2 m/S 604 mmHg 61%
    14:00 +21°C° 0.6 mm 2 m/S 603 mmHg 64%
    15:00 +20°C° 1.2 mm 2 m/S 603 mmHg 68%
    16:00 +19°C° 1.2 mm 2 m/S 603 mmHg 72%
    17:00 +18°C° 1.2 mm 2 m/S 602 mmHg 76%
    18:00 +17°C° 0.3 mm 2 m/S 602 mmHg 77%
    19:00 +16°C° 0.3 mm 2 m/S 603 mmHg 79%
    20:00 +16°C° 0.3 mm 2 m/S 603 mmHg 80%
    21:00 +16°C° 0 mm 2 m/S 603 mmHg 81%
    22:00 +15°C° 0 mm 2 m/S 603 mmHg 81%
    23:00 +15°C° 0 mm 2 m/S 603 mmHg 82%
    Mehr zeigen